India Forums Logo

Hum ne li hai... Shapath

India Forums > Forum Index > Hum ne li hai... Shapath
Hum ne li hai... Shapath is a story of tough cops against the flawed system with thrilling and contemporary police cases weaved in.
...
<< | 6 | 7 | 8 | 9 | 10 | 11 | 12 | 13 | 14 | 15 | 16 | 17 | >>
TIDTopic SubjectStart DateLast Entry
3672028Happy Birthday to Madhura Naik7/19/2013 10:50:08 AM7/19/2013 4:31:26 PM
3672495FIR took the Shapath route7/20/2013 1:08:35 AM7/20/2013 12:08:19 PM
3672531Hum Ne Li Hai Shapath with grafics and 3D effects7/20/2013 1:38:58 AM7/24/2013 5:13:35 AM
3674301TOI: Rohit Bakshi turns super villain for Shapath7/21/2013 2:13:00 PM7/22/2013 12:10:04 AM
3674627--||KavBul AT||-- #17/22/2013 2:25:32 AM2/3/2014 5:27:38 AM
3676371TOI: Double bonanza for Vaibhavi Upadhyay7/23/2013 9:32:03 AM7/28/2013 11:18:20 AM
3678646Hasan Zaidi and Kanishka Soni in Gumrah7/25/2013 5:41:32 AM7/25/2013 9:33:38 AM
3678834jodi names7/25/2013 4:43:29 AM7/28/2013 11:07:10 AM
3681110Bulbul and Kavi to get married in Life OK's Shapat7/27/2013 6:17:33 AM7/27/2013 1:26:08 PM
3682345Jodi names7/28/2013 11:08:08 AM11/3/2013 10:44:11 PM
3683205Manit Joura, Kali Prasad Mukherjee and Sunayana Fo7/29/2013 7:52:01 AM7/30/2013 1:54:43 AM
3685452Ali Hassan to feature in Life OK's Shapath7/31/2013 2:05:28 AM8/5/2013 9:28:23 AM
3685540Siraj Mustafa back after Shapath with MRP7/31/2013 3:43:44 AM7/31/2013 4:22:13 PM
3689786Vikram Bhatt's 'Horror Story' to release in Sept8/3/2013 5:01:14 PM8/3/2013 5:01:14 PM
3691215TOI-Rohit Purohit quits Shapath, bags new show!8/5/2013 7:27:20 AM8/5/2013 10:05:12 PM
3691949Madhura Naik roped in for Star Plus' Meri Bhabhi 08/5/2013 10:46:19 PM8/6/2013 5:58:54 PM
3692743Divyaalakshmi aspires high!8/6/2013 10:54:09 AM8/6/2013 6:00:52 PM
3693116Vikram Bhatt is ready with HORROR STORY8/6/2013 6:16:57 PM8/6/2013 6:16:57 PM
3694334Jyoti Gauba and Shashank Sharma to feature8/7/2013 5:46:31 PM8/17/2013 10:51:23 AM
3695755TOI - Mouli Ganguli in Shapath as new Super Villan8/9/2013 3:37:40 AM8/9/2013 5:42:20 PM
3696180Sandesh Gour meets with a major accident on t8/9/2013 10:40:25 AM8/9/2013 5:41:34 PM
3696477TV actors share their Eid plans (Zohaib)8/9/2013 5:35:18 PM8/9/2013 5:35:18 PM
3697154Lunching with Sarvar at Pop Tate's8/10/2013 10:26:04 AM8/14/2013 9:22:33 AM
3697417TB: Sunanya excited to play a 'Tomboyish' girl8/10/2013 4:06:48 PM8/27/2013 4:34:22 AM
3698251Hasan Zaidi in Gumrah 38/11/2013 7:22:55 PM8/11/2013 7:22:55 PM
3699943Guess who are bonding on the sets of Mahadev...Ram8/13/2013 5:05:19 AM8/13/2013 5:23:06 PM
3701128Post Shubh Vivah, Abhishek Duhan to be seen as a '8/14/2013 3:13:26 AM8/14/2013 7:21:49 PM
3701153Parull Chaudhary to essay a psychiatrist in Hum Ne8/14/2013 3:35:04 AM8/24/2013 6:26:25 PM
3704594Hasan Zaidi to play occultist in ZeeTV Fear Files8/16/2013 6:29:33 PM8/16/2013 6:29:33 PM
3704595Dakssh Ajit Singh comes up with his music album8/16/2013 6:30:29 PM8/16/2013 6:30:29 PM
3705027TOI: Aman Verma's reading hobby8/17/2013 6:55:11 AM8/17/2013 6:55:11 AM
3706493Gunjan Kumar to play the evil Joker in Life OK's S8/19/2013 2:19:11 AM8/19/2013 7:21:19 PM
3708782Birthday bumps to Amit Pachori8/20/2013 1:51:31 PM8/20/2013 1:51:31 PM
3710799Puneet Vashisht to play a 'Super Villain' for Hum8/22/2013 6:59:09 AM8/22/2013 7:00:24 AM
3714269Why is Sajja Bai missing from Maharana Pratap???8/25/2013 10:30:14 AM8/25/2013 2:04:31 PM
3714811Werewolf!8/26/2013 3:55:22 AM8/26/2013 4:38:36 PM
3715707Yashashri Masurkar Anchoring Buddy Baatein8/26/2013 4:05:48 PM8/26/2013 5:49:28 PM
3716318Kishwer Merchantt's to play Super Villain in Shapath8/27/2013 7:23:31 AM8/27/2013 7:23:31 AM
3717349Neha Gehlot bags Sony TV's Desh Ki Beti Nandini and Shapath8/28/2013 4:09:56 AM8/28/2013 11:39:35 AM
3717353Kunal Bakshi now gets to play 'Scorpio Man' in Hum Ne Li Hai... Shapat8/28/2013 4:11:24 AM9/9/2013 1:25:34 AM
3717358A very Happy Birthday to Manish Goel8/28/2013 4:15:02 AM8/28/2013 11:41:36 AM
3718704Shapath the no.1 show on Life OK!!!!!!!!8/29/2013 6:11:39 AM9/13/2013 10:43:42 AM
3720194Dancing makes me happy "- Mala Salariya8/30/2013 9:16:15 AM8/30/2013 5:16:31 PM
3722570finally got to see raveer, abha, anurag9/2/2013 4:33:36 AM9/2/2013 6:11:14 PM
3723397Jignesh Mehta to play a super villain in Life OK's Shapath9/2/2013 5:56:06 PM9/2/2013 5:56:06 PM
3723912Rohit Purohit opts out of Nandini; resumes Shapath9/3/2013 7:30:01 AM9/8/2013 1:35:28 AM
3723914Actor Kunal Bakshi escapes a scary accident with minor injuries9/3/2013 7:31:17 AM9/3/2013 7:31:17 AM
3724658Life OKs Shapath series Super Cops V/s Super Villains on a hi9/4/2013 1:33:52 AM9/7/2013 2:43:38 PM
3726161TOI: 'Devon Ke Dev Mahadev' has made my career: Piyush Sahdev9/5/2013 6:57:57 AM10/15/2013 5:14:42 AM
3728798TOI: Payal Rohatgi & Aniruddh Singh as Super Villains9/7/2013 2:32:55 PM10/15/2013 5:20:06 AM
3728800Payal Rohatgi will now be the next Super Villain on HNLHS9/7/2013 2:33:46 PM9/7/2013 2:33:46 PM
3732591Vikram Bhatts Horror Story to release on Friday the 13th9/11/2013 6:54:31 AM9/11/2013 10:41:20 AM
3733984TOI: 'Horror Story' actor Hasan Zaidis supernatural encounter9/12/2013 7:15:29 AM9/12/2013 7:15:29 AM
3733986Aarti Rana in Shapath9/12/2013 7:16:38 AM9/12/2013 11:32:44 PM
3733988Mihika Verma to play a Super Villain in Life OKs Hum Ne Li Hai.. Sh9/12/2013 7:17:35 AM9/12/2013 11:30:49 PM
3735340Vishal Kotian excited to play Super Villain in Life OK's Shapath9/13/2013 7:45:45 AM9/13/2013 10:36:32 AM
3736711TB: Movie Review: Horror Story9/14/2013 10:42:12 AM9/15/2013 2:28:02 AM
3739087HAPPY BIRTHDAY MANSI9/16/2013 1:12:03 PM10/1/2013 5:50:28 AM
3742636TOI: Payal's look in 'Shapath' inspired by Lady Gaga9/19/2013 6:56:09 AM9/19/2013 6:56:09 AM
3742638TOI: Aditi Sajwan replaces Mihika Verma in Shapath9/19/2013 6:57:27 AM9/19/2013 6:57:27 AM
3742639TB: Payal's look in '..Shapath' inspired by Lady Gaga9/19/2013 6:58:29 AM9/19/2013 6:58:29 AM
3742772Shapath's roaring TVTs make it the #1 show on Life OK\9/19/2013 8:32:53 AM9/22/2013 9:50:33 AM
3744448Celebrations on being NO.1!!!!!!!!!!!!19/20/2013 10:52:53 AM9/20/2013 6:28:14 PM
3744840Character List9/20/2013 6:40:26 PM12/13/2013 7:19:23 PM
3745400TOI: Anurag Sharma in Hum Ne Li Hai Shapath9/21/2013 7:20:36 AM10/15/2013 5:21:34 AM
3746027Aditi Sajwan gets to be a 'youth stealer' for Life OK's Hum Ne Li Hai9/22/2013 1:34:36 AM9/22/2013 1:34:36 AM
3746826Love Hum Ne Li Hai.... Shapath9/23/2013 12:55:32 AM9/26/2013 12:04:18 PM
3747138B Shantanu, Sarita Dhillon and Anurag Sharma in upcoming episode9/23/2013 6:18:47 AM9/23/2013 6:18:47 AM
3747975Hum Ne Li Hai Shapath Banner Contest #3 (Closed)9/23/2013 6:24:01 PM10/26/2013 7:34:23 AM
3750852S.I Ranvir aka Amit Pachori Pics9/26/2013 4:11:18 AM9/26/2013 6:39:03 PM
3753221Zuber Kamaal Khan in Life OK's Shapath9/28/2013 1:24:13 AM10/15/2013 5:24:02 AM
3753965Birthday greetings to Hasan Zaidi9/28/2013 2:56:07 PM9/28/2013 2:56:07 PM
3758209Suyash Kumar, Rajesh Puri, Swati Rajput in Life OK's Shapath10/2/2013 4:08:23 AM10/15/2013 5:22:38 AM
3758210Kunal Bakshi is elated on bagging the Best Super Villain award from Li10/2/2013 4:08:49 AM10/15/2013 5:23:15 AM
3762176After Shapath and CID, here come FW's 3rd cop-based show!10/5/2013 2:39:32 AM10/9/2013 3:17:10 AM
<< | 6 | 7 | 8 | 9 | 10 | 11 | 12 | 13 | 14 | 15 | 16 | 17 | >>